Location: Unspecified
(0.0000°N, 0.0000°E)
Time: 11:45:34
(UTC+00:00)

Okean 3 - Pass Details

Date: 04 June 2019
Orbit: 577 x 601 km, 82.5° (Epoch: 18 June)

Event Time Altitude Azimuth Distance (km) Brightness Sun altitude
Rises 19:23:58 0° 205° (SSW) 2,791 6.9 -19.7°
Reaches altitude 10° 19:26:26 10° 218° (SW) 1,888 6.2 -20.3°
Maximum altitude 19:29:52 25° 273° (W) 1,175 5.7 -21.1°
Drops below altitude 10° 19:33:19 10° 330° (NNW) 1,880 6.8 -21.8°
Sets 19:35:47 0° 343° (NNW) 2,777 7.5 -22.4°
